Location: Elk Horn Observatory
(36.6768°N, 80.8309°W)
Time: 01:43:14
(UTC-05:00)

Envisat - Pass Details

Date: 30 January 2019
Orbit: 764 x 766 km, 98.2° (Epoch: 20 February)

Event Time Altitude Azimuth Distance (km) Brightness Sun altitude
Rises 18:28:51 0° 144° (SE) 3,218 6.0 -8.9°
Reaches altitude 10° 18:31:18 10° 136° (SE) 2,295 5.2 -9.3°
Maximum altitude 18:35:54 36° 71° (ENE) 1,191 3.5 -10.2°
Drops below altitude 10° 18:40:31 10° 5° (N) 2,308 5.3 -11.1°
Sets 18:42:58 0° 358° (N) 3,237 6.1 -11.6°
